Zurück zum Katalog

GEESAT 1-03

AktivWissenschaftLEO
NORAD 52787·PAYLOAD·🇨🇳 China

Gestartet Jun 2, 2022 von Xichang Satellite Launch Center

Loading…

Nächste Überflüge (nächste 24 Stunden)

TLE

AktuellSource: Space-Track

Epoche: Sep 14, 2026, 21:00 UTC

1 52787U 22058C   26257.87508239  .00001268  00000-0  18774-3 0  9997
2 52787  49.9868 147.0589 0008150  86.1140 274.0729 14.81605422233230

Verfolge GEESAT 1-03 in Echtzeit mit AllMySat

Download on the App Store